Location: Boiro
(42.6475°N, 8.8834°W)
Time: 15:23:40
(UTC+01:00)

Vanguard 1 Rocket - Pass Details

Date: 12 December 2021
Orbit: 651 x 4224 km, 34.3° (Epoch: 22 January)

Event Time Altitude Azimuth Distance (km) Brightness Sun altitude
Rises 07:14:05 0° 275° (W) 5,216 - -18.1°
Reaches altitude 10° 07:17:08 10° 268° (W) 4,603 - -17.5°
Exits shadow 07:19:05 17° 262° (W) 4,284 10.3 -17.2°
Maximum altitude 07:29:56 42° 203° (SSW) 3,944 10.5 -15.3°
Drops below altitude 10° 07:50:59 10° 143° (SE) 7,297 12.9 -11.6°
Sets 07:57:37 0° 137° (SE) 8,454 13.6 -10.5°
